Location: ???????
(54.9996°N, 37.9529°E)
Time: 07:10:30
(UTC+00:00)

Meteor 1-27 Rocket - Visible Passes

Search period start: 13 July 2024 00:00
Search period end: 23 July 2024 00:00
Orbit: 829 x 909 km, 81.3° (Epoch: 12 July)

Date Brightness Start Highest point End Pass type
(mag) Time Alt. Az. Time Alt. Az. Time Alt. Az.
13 Jul 6.3 20:51:39 10° NNE 20:54:42 14° NE 20:57:42 10° ENE visible
13 Jul 4.6 22:33:48 10° N 22:39:35 51° ENE 22:45:14 10° SE visible
14 Jul 4.6 00:17:28 10° NNW 00:22:46 36° W 00:27:58 10° SSW visible
14 Jul 6.3 20:45:09 10° NNE 20:48:15 14° NE 20:51:19 10° ENE visible
14 Jul 4.5 22:27:20 10° N 22:33:07 52° ENE 22:38:46 10° SE visible
15 Jul 4.6 00:11:01 10° NNW 00:16:17 35° W 00:21:27 10° SSW visible
15 Jul 6.2 20:38:39 10° NNE 20:41:48 14° NE 20:44:56 10° ENE visible
15 Jul 4.5 22:20:53 10° N 22:26:40 53° ENE 22:32:19 10° SE visible
16 Jul 4.6 00:04:33 10° NNW 00:09:48 34° W 00:14:56 10° SSW visible
16 Jul 6.2 20:32:09 10° NNE 20:35:22 15° NE 20:38:32 10° ENE visible
16 Jul 4.5 22:14:24 10° N 22:20:12 54° ENE 22:25:51 10° SSE visible
16 Jul 4.7 23:58:07 10° NNW 00:03:19 34° W 00:08:24 10° SSW visible
17 Jul 6.2 20:25:40 10° NNE 20:28:56 15° NE 20:32:09 10° E visible
17 Jul 4.4 22:07:57 10° N 22:13:44 55° ENE 22:19:23 10° SSE visible
17 Jul 4.7 23:51:40 10° NNW 23:56:50 33° W 00:01:53 10° SSW visible
18 Jul 6.1 20:19:11 10° N 20:22:29 15° NE 20:25:45 10° E visible
18 Jul 4.4 22:01:28 10° N 22:07:16 56° ENE 22:12:53 10° SSE visible
18 Jul 4.7 23:45:13 10° NNW 23:50:21 32° W 23:55:16 10° SSW visible
19 Jul 6.1 20:12:42 10° N 20:16:02 15° NE 20:19:21 10° E visible
19 Jul 4.3 21:55:01 10° N 22:00:49 57° ENE 22:06:08 12° SSE visible
19 Jul 4.8 23:38:47 10° NNW 23:43:51 32° W 23:48:30 12° SSW visible
20 Jul 6.1 20:06:12 10° N 20:09:36 15° NE 20:12:57 10° E visible
20 Jul 4.3 21:48:32 10° N 21:54:20 58° ENE 21:59:24 13° SSE visible
20 Jul 4.8 23:32:20 10° NNW 23:37:22 31° W 23:41:46 12° SW visible
21 Jul 6.1 19:59:42 10° N 20:03:09 16° NE 20:06:33 10° E visible
21 Jul 4.2 21:42:04 10° N 21:47:53 59° ENE 21:52:41 15° SSE visible
21 Jul 4.8 23:25:53 10° NNW 23:30:53 30° W 23:35:03 13° SW visible
22 Jul 6.0 19:53:13 10° N 19:56:43 16° NE 20:00:08 10° E visible
22 Jul 4.2 21:35:36 10° N 21:41:24 60° ENE 21:45:59 16° SSE visible
22 Jul 4.9 23:19:26 10° NNW 23:24:23 30° W 23:28:22 14° SW visible
